EHI
86 86 90 91 84 74 66 61 58 61 61 53 39 28 21 20 23 31 46 65 73 71 68 63 49 33 24 18 13 13 15 19 22 22 23 26 27 27 24 20 15 9 6
92 91 92 91 86 76 69 66 64 65 64 56 42 30 26 27 30 36 47 61 69 68 64 61 52 40 31 25 21 20 21 21 22 22 23 25 27 28 27 23 16 9 6
93 91 89 86 81 74 69 65 63 61 60 55 44 34 32 35 37 41 46 53 58 59 57 57 53 46 38 33 32 33 31 28 25 23 23 25 27 26 25 23 17 10 6
83 83 81 77 73 68 61 55 53 53 51 48 42 36 36 40 41 42 43 46 50 52 52 53 54 51 45 41 42 45 45 40 34 28 27 28 29 25 22 21 16 9 5
69 70 71 68 65 62 56 49 50 50 47 42 37 34 36 41 43 42 39 40 46 49 47 49 56 55 49 48 51 56 56 51 43 37 36 37 38 32 23 17 13 7 2
52 52 53 54 54 54 52 49 46 45 43 39 30 28 32 37 42 42 38 36 38 39 38 43 50 52 47 46 50 54 52 48 44 41 42 45 46 38 24 14 9 4 1
33 31 32 36 37 37 38 39 36 33 35 36 29 21 21 27 33 38 38 36 31 29 29 34 39 43 42 38 35 36 35 35 37 37 38 43 45 38 25 15 7 3 1
16 16 18 20 21 20 21 25 26 26 28 33 31 18 10 14 21 28 35 35 32 30 27 26 29 34 38 34 25 20 21 25 29 29 29 32 34 30 23 15 8 2 0
8 9 11 12 11 10 11 15 17 20 24 30 29 18 8 7 11 17 24 28 31 34 29 23 23 29 37 39 30 18 14 17 21 23 22 22 21 20 17 12 7 2 0
14 13 13 13 12 9 9 10 12 15 19 22 23 19 12 9 6 7 11 16 23 29 28 24 24 30 38 41 33 19 9 8 12 16 17 16 13 12 12 10 7 4 2
28 25 23 23 20 14 10 10 11 12 12 14 16 17 13 9 6 3 3 6 12 18 23 25 28 32 35 34 25 12 4 2 4 7 8 8 7 7 7 8 9 7 4
42 39 37 36 30 21 17 15 14 12 10 9 12 14 12 9 7 4 2 2 5 10 17 23 26 28 27 24 15 5 1 0 1 1 2 2 3 3 3 5 8 7 5
49 49 49 48 39 28 23 19 17 14 12 10 9 10 10 9 7 5 3 2 2 5 11 18 22 22 22 18 9 2 0 0 0 0 0 0 1 1 1 2 4 4 5
51 54 57 55 45 33 27 24 21 17 14 12 8 7 8 8 8 6 5 2 1 2 6 13 19 22 23 16 6 0 0 0 0 0 0 0 0 0 0 0 1 1 2
50 52 56 56 49 39 32 28 24 20 17 14 10 7 6 8 9 9 7 4 2 1 2 8 15 19 19 13 4 0 0 0 0 0 0 0 0 0 0 0 0 0 0
40 42 45 48 46 40 34 28 22 19 18 16 14 9 5 6 8 8 9 9 5 2 1 4 8 10 9 6 2 0 0 0 0 0 0 0 0 0 0 0 0 0 0
24 26 29 32 32 30 27 24 19 16 16 16 13 9 4 3 4 4 7 8 7 4 1 2 3 4 3 2 0 0 0 0 0 0 0 0 0 0 0 0 0 0 0
12 14 16 16 15 16 16 15 14 14 14 14 11 6 3 1 2 2 3 4 6 5 3 4 4 2 1 0 0 0 0 0 0 0 0 0 0 0 0 0 0 0 0
6 7 7 7 6 6 7 7 8 10 12 11 8 4 2 2 2 2 1 2 4 5 4 5 5 3 0 0 0 0 0 0 0 0 0 0 0 0 0 0 0 0 0
2 2 2 3 4 3 3 3 3 4 6 7 6 4 2 2 2 1 1 2 2 2 2 4 4 2 0 0 0 0 0 0 0 0 0 0 0 0 0 0 0 0 0
0 0 0 0 2 2 1 0 0 1 1 3 4 3 1 1 1 0 0 1 1 0 1 1 1 0 0 0 0 0 0 0 0 0 0 0 0 0 0 0 0 0 0
0 0 0 0 0 1 0 0 0 0 0 1 3 2 1 0 0 0 0 0 0 0 0 0 0 0 0 0 0 0 0 0 0 0 0 0 0 0 0 0 0 0 0
0 0 0 0 0 0 0 0 0 0 0 0 1 2 1 0 0 0 0 0 0 0 0 0 0 0 0 0 0 0 0 0 0 0 0 0 0 0 0 0 0 0 0
0 0 0 0 0 0 0 0 0 0 0 0 1 1 0 0 0 0 0 0 0 0 0 0 0 0 0 0 0 0 0 0 0 0 0 0 0 0 0 0 0 0 0
0 0 0 0 0 0 0 0 0 0 0 0 0 0 0 0 0 0 0 0 0 0 0 0 0 0 0 0 0 0 0 0 0 0 0 0 0 0 0 0 0 0 0
0 0 0 0 0 0 0 0 0 0 0 0 0 0 0 0 0 0 0 0 0 0 0 0 0 0 0 0 0 0 0 0 0 0 0 0 0 0 0 0 0 0 0
Wind_Speed
4 3 2 1 2 3 4 5 4 4 4 5 5 6 6 6 5 3 3 11 14 14 14 15 15 15 15 15 16 16 16 17 17 17 17 18 18 18 18 18 17 16 16
2 1 2 2 3 3 3 3 3 3 3 3 5 6 5 5 5 5 4 7 14 15 16 16 16 16 16 16 16 16 16 16 17 17 18 18 19 19 19 19 18 18 17
1 2 3 3 4 4 4 3 4 3 4 5 5 6 6 6 6 6 5 4 5 13 17 17 17 17 17 17 17 16 15 16 16 17 17 18 18 19 19 19 19 18 18
2 2 3 4 3 3 3 3 4 4 4 4 4 5 5 5 7 7 5 5 5 6 11 17 17 17 17 17 17 16 15 15 16 16 17 17 18 18 19 19 19 19 18
2 1 2 3 4 3 3 5 4 3 4 5 5 6 6 6 6 8 7 8 7 7 6 9 16 17 17 18 17 16 15 14 14 14 15 16 17 18 18 19 19 19 19
1 1 3 3 3 3 3 3 4 4 4 5 7 7 5 6 6 6 7 7 7 8 8 7 6 10 16 16 15 15 14 13 12 13 14 15 16 16 17 18 18 18 18
1 2 3 2 3 3 4 4 4 5 5 4 4 5 5 7 7 6 6 6 7 7 6 5 4 4 6 13 12 12 12 12 11 12 12 13 14 15 16 17 17 17 18
2 3 1 3 3 3 5 5 4 4 4 4 3 4 4 4 6 8 6 7 8 6 6 8 6 6 6 5 6 9 9 10 10 10 11 11 12 13 15 16 17 17 17
2 2 3 3 3 4 4 4 4 5 4 4 4 4 3 4 3 3 5 5 5 5 5 5 6 7 7 5 5 7 8 7 7 8 8 9 10 11 12 15 16 16 17
3 3 3 3 3 4 5 5 4 3 4 5 4 4 5 4 4 4 3 4 5 5 5 5 5 4 4 3 4 7 8 6 4 5 4 4 5 6 9 11 14 15 16
4 5 4 2 3 4 5 4 5 5 4 5 5 4 5 5 6 5 6 4 3 3 4 4 3 2 2 3 4 6 8 6 4 3 2 2 1 2 5 8 11 13 14
4 5 4 2 3 4 4 4 5 6 5 6 5 5 5 4 4 5 6 5 4 3 3 2 2 2 2 3 6 9 8 7 5 4 4 3 3 2 0 2 5 8 10
4 4 3 2 3 4 4 5 5 6 6 6 6 5 5 5 5 5 5 5 5 3 2 1 1 2 3 5 6 10 8 8 7 6 6 6 6 6 5 4 3 2 3
6 5 4 3 4 5 6 5 5 6 6 6 7 6 5 6 5 5 5 5 4 3 3 2 1 2 4 5 8 9 7 9 9 8 8 8 8 8 9 9 8 8 6
7 7 7 6 6 6 6 5 5 6 6 6 6 7 6 5 5 5 5 5 5 4 4 3 2 3 4 6 8 6 7 10 10 10 10 11 11 11 11 11 11 11 11
8 8 8 8 7 7 7 6 6 6 6 6 5 6 6 5 5 4 5 4 5 5 3 2 2 5 6 7 9 8 9 12 11 11 12 12 13 13 13 13 13 13 13
8 9 9 9 8 8 8 7 8 8 7 7 6 7 7 6 5 4 4 4 5 5 4 2 3 5 7 8 8 8 8 7 7 11 13 13 13 14 14 14 14 14 14
9 9 9 9 10 9 8 8 9 9 7 7 6 6 7 6 6 4 4 5 4 5 5 6 4 5 7 8 8 8 8 8 7 11 13 13 13 13 13 14 14 13 13
9 9 9 10 10 10 9 9 9 8 7 6 6 6 6 5 5 4 4 4 3 4 5 6 6 5 5 7 8 7 9 8 9 10 12 12 13 13 13 13 13 12 12
9 9 9 9 10 10 10 9 9 8 7 6 5 5 4 4 4 3 3 3 3 4 6 7 7 6 6 6 6 7 7 6 7 8 9 10 11 13 12 12 12 12 11
11 9 9 9 10 10 10 8 7 9 6 5 4 3 2 1 1 2 3 3 5 5 6 7 8 7 7 6 6 5 7 6 6 7 8 7 7 6 7 9 11 11 10
9 9 9 10 11 11 9 8 7 7 6 5 4 3 2 1 3 4 5 4 5 7 8 7 6 8 8 6 5 6 7 7 5 4 6 6 6 5 5 5 8 9 9
9 9 9 10 10 10 10 9 9 7 7 5 5 4 3 3 4 5 7 9 7 7 7 7 9 8 7 6 6 6 5 5 4 5 5 6 6 6 5 6 9 9 8
8 9 9 10 10 11 11 10 9 8 7 6 6 5 4 5 5 6 7 8 7 7 7 7 7 7 7 5 5 6 6 5 4 4 5 6 6 6 6 4 7 8 8
9 9 10 10 10 9 10 10 9 7 6 6 6 6 7 6 8 9 9 9 9 8 11 14 13 12 12 11 7 5 5 5 5 3 2 4 6 6 4 4 5 8 8
9 11 10 10 10 9 9 11 11 6 6 5 5 6 9 9 10 10 9 10 10 9 10 11 11 10 8 8 7 4 3 4 5 3 2 3 5 5 4 3 4 5 4
Wind_Direction
219 237 257 268 260 247 221 222 235 230 225 237 245 250 246 245 247 242 200 188 193 202 209 213 217 221 223 224 225 225 224 223 221 220 220 221 221 219 218 218 217 215 213
242 277 276 266 266 270 274 267 260 248 240 246 253 257 256 255 251 245 234 209 205 208 214 218 220 222 224 223 223 224 224 224 221 219 219 220 221 220 219 218 217 215 213
262 255 265 260 253 258 263 267 275 271 261 253 249 254 256 253 252 247 244 240 219 218 218 220 222 222 224 225 224 222 222 223 223 221 220 219 220 219 219 218 217 215 213
267 257 260 266 270 265 260 254 247 252 256 258 255 255 254 251 249 247 242 239 235 240 225 225 225 223 223 226 226 224 221 221 222 222 221 219 219 218 218 218 217 216 213
282 262 267 268 274 275 267 265 257 243 254 255 252 244 240 241 243 246 242 239 232 233 231 227 225 225 224 225 225 223 219 218 219 220 220 219 219 218 217 217 217 216 214
310 328 273 267 279 272 266 268 276 268 256 256 264 264 245 239 234 234 240 243 240 239 237 239 221 226 226 224 222 220 220 221 221 222 223 222 221 219 217 216 216 216 214
345 292 289 314 286 277 284 281 274 275 268 255 256 267 257 245 239 234 230 237 244 240 237 233 227 230 229 222 221 220 223 226 225 224 225 225 223 221 218 216 216 215 214
347 296 339 315 308 308 288 274 272 269 274 264 256 277 275 259 237 236 228 228 236 233 232 238 224 223 229 204 199 211 225 231 233 230 228 226 225 223 220 217 215 214 214
277 293 302 293 307 297 294 306 292 282 280 277 245 240 259 264 296 259 243 241 232 229 229 234 227 218 217 202 173 183 201 221 232 235 233 232 228 227 224 221 216 214 214
248 252 255 272 289 292 294 291 308 309 292 284 269 242 244 271 283 290 274 255 240 234 232 242 247 227 208 183 153 157 170 179 199 215 215 223 229 230 227 223 221 219 217
236 233 228 235 266 276 285 299 300 287 281 279 282 283 273 264 249 254 273 271 261 246 234 230 229 225 187 158 141 140 147 150 154 158 168 171 194 243 235 228 227 225 222
247 231 222 209 245 264 284 290 284 281 273 273 274 272 270 264 258 249 257 264 260 251 237 216 193 177 151 132 128 130 130 127 121 114 103 94 83 62 7 226 227 227 225
278 255 235 212 242 260 267 267 270 270 270 270 268 263 260 261 260 259 262 266 267 265 242 204 179 163 145 117 121 124 117 115 110 105 98 88 80 76 75 79 87 126 196
301 313 296 256 246 254 263 264 269 269 264 261 268 267 265 263 255 246 247 251 260 252 230 208 156 152 129 124 133 126 113 111 107 101 96 92 88 84 79 75 74 76 83
310 315 313 295 275 262 259 263 264 266 269 266 266 267 260 260 256 249 241 233 233 241 236 195 158 140 126 123 140 123 117 112 108 102 97 93 89 86 83 78 75 75 79
317 313 304 296 286 274 264 258 261 260 261 261 258 262 265 263 258 251 242 235 229 227 227 189 165 151 140 135 131 118 114 112 105 104 99 95 91 87 84 83 81 79 80
311 306 303 295 287 279 271 260 258 262 262 263 265 264 263 260 257 253 242 233 229 216 209 175 138 138 132 129 127 126 131 116 107 105 102 98 94 90 87 85 83 82 82
305 300 297 295 288 282 273 266 262 263 263 264 266 269 269 267 256 250 240 229 222 205 175 158 144 141 136 136 140 140 135 121 115 111 106 102 98 94 90 86 83 80 79
295 297 295 291 289 285 279 271 264 260 260 263 266 266 266 264 261 248 231 222 207 190 161 149 146 141 138 143 138 132 124 122 121 120 109 104 102 99 94 90 86 83 81
285 287 290 289 287 283 278 273 268 260 256 258 260 265 268 261 253 240 216 201 177 159 149 145 143 142 141 143 137 135 132 133 133 134 116 112 109 101 98 96 93 90 87
286 288 291 293 290 285 275 275 277 265 251 246 248 258 281 294 261 218 197 179 164 154 151 149 147 143 145 151 151 148 140 134 127 131 131 132 129 116 106 102 97 96 94
283 287 290 291 289 288 296 295 284 280 260 237 223 203 191 156 116 108 120 137 160 164 160 153 149 152 152 152 142 142 139 139 139 151 143 146 139 123 117 106 112 109 103
284 285 286 285 283 282 276 268 264 269 255 228 207 199 197 157 143 124 110 100 96 115 135 143 143 145 143 147 140 133 137 139 131 150 136 129 125 114 109 116 128 120 113
284 283 282 282 279 278 269 258 253 254 248 220 201 187 170 162 149 138 122 104 91 84 99 107 114 112 113 108 114 126 128 118 107 117 127 129 131 126 121 127 148 140 130
281 280 280 278 277 272 260 250 240 246 235 217 191 173 165 151 143 134 124 116 106 93 83 93 98 99 98 97 101 117 132 132 130 127 122 126 132 129 132 141 163 163 149
279 279 277 276 277 274 259 242 228 237 224 204 178 158 154 146 145 139 135 128 119 115 113 105 99 99 102 101 101 116 148 144 135 126 123 120 143 141 136 149 155 166 164